Wautoma, WI

6:59 AM CST on December 15, 2019 (GMT -0600)
Wautoma

Weather History for KY50 - November, 2019

Change the Weather History Date:

Friday, November 15, 2019

  Actual Average (WUND) Record (WUND)
Temperature  
Mean Temperature 28 °F -  
Max Temperature 39 °F - - (-1)
Min Temperature 17 °F - - (-1)
Degree Days  
Heating Degree Days 37    
Moisture  
Dew Point 18 °F    
Average Humidity 70    
Maximum Humidity 89    
Minimum Humidity 32    
Precipitation  
Precipitation 0.00 in - - ()
Sea Level Pressure  
Sea Level Pressure 30.35 in    
Wind  
Wind Speed 4 mph ()    
Max Wind Speed 10 mph    
Max Gust Speed -    
Visibility 9.9 miles    
Events      
Averages and records for this station are not official NWS values.
T = Trace of Precipitation, MM = Missing Value Source: Averaged Metar Reports

Daily Weather History Graph

Daily Weather History Graph

Search for Another Location

Airport or City:

Astronomy

Nov. 15, 2019 Rise Set
Actual Time 6:52 AM CST 4:31 PM CST
Civil Twilight 6:20 AM CST 5:02 PM CST
Nautical Twilight 5:45 AM CST 5:37 PM CST
Astronomical Twilight 5:11 AM CST 6:11 PM CST
Moon 7:02 PM CST 9:52 AM CST
Length of Visible Light 10h 41m
Length of Day
9h 39m
Waning Gibbous, 90% of the Moon is Illuminated
Nov 15
Waning Gibbous
Nov 19
Last Quarter
Nov 26
New
Dec 4
First Quarter
Dec 11
Full

Hourly Weather History & Observations

Time (CST) Temp. Windchill Dew Point Humidity Pressure Visibility Wind Dir Wind Speed Gust Speed Precip Events Conditions
12:56 AM 19.9 °F 14.9 °F 15.1 °F 81% 30.25 in 10.0 mi SSW 3.5 mph - N/A   Clear
1:36 AM 17.6 °F 9.3 °F 14.0 °F 86% 30.22 in 10.0 mi South 5.8 mph - N/A   Mostly Cloudy
1:56 AM 21.9 °F 15.7 °F 19.0 °F 89% 30.25 in 10.0 mi South 4.6 mph - N/A   Overcast
2:56 AM 24.1 °F 18.2 °F 19.0 °F 81% 30.25 in 10.0 mi SSW 4.6 mph - N/A   Overcast
3:56 AM 25.0 °F 20.7 °F 19.9 °F 81% 30.26 in 10.0 mi South 3.5 mph - N/A   Overcast
4:56 AM 27.0 °F 21.6 °F 21.9 °F 81% 30.27 in 10.0 mi SSW 4.6 mph - N/A   Overcast
5:56 AM 28.0 °F 24.2 °F 23.0 °F 81% 30.29 in 10.0 mi SW 3.5 mph - N/A   Overcast
6:56 AM 26.1 °F 21.9 °F 21.0 °F 81% 30.30 in 10.0 mi WNW 3.5 mph - N/A   Scattered Clouds
7:56 AM 28.9 °F 25.2 °F 23.0 °F 78% 30.33 in 10.0 mi West 3.5 mph - N/A   Clear
8:56 AM 32.0 °F 26.4 °F 25.0 °F 75% 30.34 in 10.0 mi NNW 5.8 mph - N/A   Clear
9:56 AM 34.0 °F 26.0 °F 23.0 °F 64% 30.36 in 10.0 mi NW 10.4 mph - N/A   Clear
10:56 AM 36.0 °F 29.0 °F 19.0 °F 50% 30.36 in 10.0 mi NW 9.2 mph - N/A   Clear
11:56 AM 37.0 °F 32.4 °F 18.0 °F 46% 30.36 in 10.0 mi WNW 5.8 mph - N/A   Clear
12:56 PM 39.0 °F 33.4 °F 12.0 °F 33% 30.37 in 10.0 mi NW 8.1 mph - N/A   Clear
1:56 PM 39.0 °F 32.8 °F 10.9 °F 32% 30.37 in 9.0 mi NNW 9.2 mph - N/A   Clear
2:56 PM 39.0 °F 34.8 °F 14.0 °F 36% 30.38 in 9.0 mi WNW 5.8 mph - N/A   Clear
3:56 PM 37.9 °F 35.5 °F 12.9 °F 36% - 10.0 mi NNW 3.5 mph - N/A   Clear
4:56 PM 30.0 °F - 18.0 °F 61% 30.40 in 10.0 mi Calm Calm - N/A   Clear
5:56 PM 27.0 °F - 18.0 °F 69% 30.41 in 10.0 mi Calm Calm - N/A   Clear
6:56 PM 24.1 °F - 19.0 °F 81% 30.43 in 10.0 mi Calm Calm - N/A   Clear
7:56 PM 21.9 °F - 18.0 °F 85% 30.44 in 10.0 mi Calm Calm - N/A   Clear
8:56 PM 21.0 °F - 17.1 °F 85% 30.45 in 10.0 mi Calm Calm - N/A   Clear
9:56 PM 21.0 °F - 18.0 °F 88% 30.45 in 10.0 mi Calm Calm - N/A   Clear
10:56 PM 21.0 °F - 18.0 °F 88% 30.46 in 10.0 mi Calm Calm - N/A   Clear
11:56 PM 19.0 °F - 16.0 °F 88% 30.46 in 10.0 mi Calm Calm - N/A   Clear